Hourly Data Report for August 23, 2002

SHERBROOKE A
QUEBEC

45°26'00.000" N
71°41'00.000" W
241.40 m
7028124
71610
YSC

Download Data

Hourly Data (August 2002)
Hourly Data Report for August 23, 2002
TIME
LST
Temp Definition
°C
Dew Point Definition
°C
Rel Hum Definition
%
Precip. Amount Definition
mm

Wind Dir Definition
10's deg

Wind Spd Definition
km/h
Visibility Definition
km
Stn Press Definition
kPa
Hmdx Definition


Wind Chill Definition


Weather Definition


00:00 14.5 13.5 94   35 6 9.7 98.82      
01:00 12.1 11.5 96   3 4 12.9 98.83      
02:00 8.8 8.5 98     0 3.1 98.84      
03:00 7.1 6.7 97   26 4 1.6 98.88      
04:00 7.2 7.1 99     0 0.6 98.90      
05:00 7.4 6.9 97     0 1.4 98.97      
06:00 8.5 8.5 100   8 4 0.2 99.01      
07:00 10.8 10.8 100   24 4 0.2 99.09     Fog
08:00 11.4 11.3 99     0 2.4 99.10     Fog
09:00 14.3 12.7 90     0 24.1 99.12     Mainly Clear
10:00 15.7 12.9 83   24 4 24.1 99.10     Mainly Clear
11:00 18.1 10.4 61   20 6 24.1 99.04     Mainly Clear
12:00 19.5 10.2 55     0 24.1 99.01     Mainly Clear
13:00 20.5 10.3 52   19 6 24.1 98.94     Mainly Clear
14:00 21.6 9.8 47   27 7 24.1 98.90     Mainly Clear
15:00 21.2 11.1 52   25 13 24.1 98.87     Mainly Clear
16:00 21.0 10.4 51   29 11 24.1 98.86     Mainly Clear
17:00 20.0 10.4 54   30 7 15.0 98.82      
18:00 17.3 11.1 67   31 6 15.0 98.81      
19:00 13.4 11.1 86   35 6 15.0 98.78      
20:00 10.6 9.2 91   4 6 15.0 98.81      
21:00 9.8 8.8 93   10 6 15.0 98.77      
22:00 10.4 9.9 97   9 4 15.0 98.74      
23:00 10.1 9.6 97   8 7 15.0 98.74      

Notes on Data Quality.

Legend

  • E = Estimated
  • M = Missing
  • NA = Not Available*
  • [empty] = Indicates an unobserved value
Date modified: